Pine Ridge, SD

5:08 AM MST on November 25, 2017 (GMT -0700)
Pine Ridge

Weather History for KIEN - March, 2014

Change the Weather History Date:

Monday, March 31, 2014

  Actual Average Record
Temperature  
Mean Temperature 26 °F 41 °F  
Max Temperature 47 °F 55 °F 82 °F (2012)
Min Temperature 5 °F 27 °F 5 °F (2014)
Degree Days  
Heating Degree Days 39 24  
Month to date heating degree days 933 887  
Since 1 July heating degree days 6415 6238  
Cooling Degree Days 0 0  
Month to date cooling degree days 0 0  
Year to date cooling degree days 0 0  
Moisture  
Dew Point 22 °F    
Average Humidity 76    
Maximum Humidity 92    
Minimum Humidity 60    
Precipitation  
Precipitation 0.09 in 0.04 in 0.20 in (2017)
Month to date precipitation 0.34 0.87  
Year to date precipitation 0.61 1.66  
Sea Level Pressure  
Sea Level Pressure 29.81 in    
Wind  
Wind Speed 15 mph (NNW)    
Max Wind Speed 35 mph    
Max Gust Speed 46 mph    
Visibility 4 miles    
Events Fog , Rain , Snow    
T = Trace of Precipitation, MM = Missing Value Source: NWS Daily Summary

Daily Weather History Graph

Daily Weather History Graph

Search for Another Location

Airport or City:

Trip Planner

Search our weather history database for the weather conditions in past years. The results will help you decide how hot, cold, wet, or windy it might be!

Date:

Astronomy

Mar. 31, 2014 Rise Set
Actual Time 6:33 AM MDT 7:15 PM MDT
Civil Twilight 6:05 AM MDT 7:43 PM MDT
Nautical Twilight 5:31 AM MDT 8:17 PM MDT
Astronomical Twilight 4:56 AM MDT 8:53 PM MDT
Moon 6:57 AM MDT (3/31) 8:38 PM MDT (3/31)
Length of Visible Light 13h 38m
Length of Day
12h 41m
New Moon, 1% of the Moon is Illuminated
Mar 31
New Moon
Apr 7
First Quarter
Apr 15
Full
Apr 22
Last Quarter
Apr 29
New

Hourly Weather History & Observations

Time (MDT) Temp. Windchill Dew Point Humidity Pressure Visibility Wind Dir Wind Speed Gust Speed Precip Events Conditions
12:52 AM 46.9 °F - 34.0 °F 61% 29.37 in 10.0 mi WNW 4.6 mph - N/A   Partly Cloudy
1:52 AM 44.1 °F 38.6 °F 34.0 °F 68% 29.39 in 10.0 mi NNW 10.4 mph - N/A   Clear
2:52 AM 41.0 °F 34.7 °F 35.1 °F 79% 29.42 in 10.0 mi North 10.4 mph 18.4 mph N/A   Mostly Cloudy
3:09 AM 39.0 °F 32.8 °F 35.1 °F 86% 29.48 in 10.0 mi NNW 9.2 mph - N/A   Overcast
3:52 AM 37.0 °F 28.9 °F 34.0 °F 89% 29.48 in 7.0 mi NNW 12.7 mph - N/A   Overcast
4:12 AM 35.1 °F 24.5 °F 33.1 °F 92% 29.52 in 6.0 mi North 18.4 mph 28.8 mph N/A   Overcast
4:52 AM 33.1 °F 20.3 °F 30.9 °F 92% 29.53 in 4.0 mi NNW 24.2 mph 31.1 mph N/A   Overcast
5:05 AM 32.0 °F 19.5 °F 30.0 °F 92% 29.56 in 2.0 mi North 21.9 mph 31.1 mph 0.00 in   Overcast
5:17 AM 30.9 °F 18.7 °F 30.0 °F 96% 29.56 in 2.5 mi North 19.6 mph 28.8 mph 0.00 in Rain Light Freezing Rain
5:30 AM 30.9 °F 18.1 °F 30.0 °F 96% 29.57 in 3.0 mi North 21.9 mph 31.1 mph 0.00 in Rain Light Freezing Rain
5:38 AM 30.9 °F 20.2 °F 28.9 °F 92% 29.57 in 2.5 mi North 15.0 mph 29.9 mph 0.00 in Rain Light Freezing Rain
5:52 AM 30.0 °F 18.3 °F 28.0 °F 92% 29.57 in 2.0 mi North 17.3 mph 29.9 mph 0.00 in Rain Light Freezing Rain
6:21 AM 28.0 °F 14.3 °F 26.1 °F 92% 29.61 in 3.0 mi North 21.9 mph 33.4 mph 0.00 in Rain Light Freezing Rain
6:31 AM 28.0 °F 17.0 °F 26.1 °F 92% 29.62 in 4.0 mi North 13.8 mph 28.8 mph 0.00 in Rain Light Freezing Rain
6:38 AM 27.0 °F 13.2 °F 26.1 °F 96% 29.62 in 4.0 mi NNW 20.7 mph 29.9 mph 0.00 in Snow Light Snow
6:52 AM 27.0 °F 13.2 °F 25.0 °F 92% 29.65 in 7.0 mi NNW 20.7 mph 27.6 mph 0.00 in   Overcast
7:17 AM 25.0 °F 10.9 °F 21.9 °F 88% 29.68 in 1.5 mi NNW 19.6 mph 28.8 mph 0.00 in Snow Light Snow
7:22 AM 25.0 °F 12.6 °F 21.9 °F 88% 29.68 in 0.5 mi NNW 15.0 mph 25.3 mph 0.00 in Fog , Snow Snow
7:35 AM 24.1 °F 8.7 °F 19.9 °F 84% 29.69 in 0.2 mi NNW 23.0 mph 36.8 mph 0.00 in Fog , Snow Snow
8:52 AM 19.9 °F 4.8 °F 17.1 °F 89% 29.80 in 0.2 mi NNW 18.4 mph 26.5 mph N/A Fog , Snow Heavy Snow
9:22 AM 19.9 °F 6.7 °F 16.0 °F 85% 29.78 in 0.2 mi NNW 13.8 mph 27.6 mph 0.00 in Fog , Snow Heavy Snow
9:52 AM 19.0 °F 0.3 °F 15.1 °F 85% 29.85 in 0.2 mi North 28.8 mph 38.0 mph 0.02 in Fog , Snow Heavy Snow
10:52 AM 18.0 °F -0.2 °F 12.9 °F 81% 29.89 in 0.2 mi NNW 25.3 mph 35.7 mph 0.02 in Snow Heavy Snow
11:52 AM 19.0 °F 1.0 °F 15.1 °F 85% 29.91 in 0.2 mi North 26.5 mph 40.3 mph 0.01 in Fog , Snow Heavy Snow
12:13 PM 19.9 °F 3.5 °F 16.0 °F 85% 29.85 in 0.2 mi NNW 21.9 mph 33.4 mph 0.01 in Fog , Snow Heavy Snow
12:48 PM 21.2 °F 4.9 °F 17.6 °F 86% 29.88 in 0.2 mi NNW 23.0 mph 39.1 mph 0.01 in Snow Heavy Snow
12:52 PM 21.9 °F 5.8 °F 17.1 °F 82% 29.94 in 0.2 mi NNW 23.0 mph 39.1 mph 0.01 in Snow Heavy Snow
1:37 PM 24.1 °F 10.6 °F 19.9 °F 84% 29.89 in 0.5 mi NW 17.3 mph 25.3 mph 0.02 in Fog , Snow Snow
1:52 PM 25.0 °F 10.6 °F 19.9 °F 81% 29.96 in 0.8 mi NW 20.7 mph 29.9 mph 0.02 in Snow Light Snow
2:07 PM 25.0 °F 10.9 °F 21.0 °F 85% 29.91 in 0.5 mi NNW 19.6 mph 27.6 mph 0.00 in Fog , Snow Snow
2:52 PM 26.1 °F 11.3 °F 21.0 °F 81% 29.99 in 1.0 mi NW 23.0 mph 28.8 mph 0.00 in Snow Light Snow
3:01 PM 27.0 °F 13.2 °F 21.9 °F 81% 29.93 in 1.2 mi NNW 20.7 mph 31.1 mph 0.00 in Snow Light Snow
3:17 PM 28.0 °F 13.9 °F 21.9 °F 78% 29.94 in 1.5 mi NNW 23.0 mph 29.9 mph 0.00 in Snow Light Snow
3:52 PM 28.0 °F 15.3 °F 21.9 °F 78% 30.04 in 1.8 mi NNW 18.4 mph 29.9 mph 0.00 in Snow Light Snow
4:34 PM 27.0 °F 13.2 °F 21.0 °F 78% 29.99 in 2.5 mi NNW 20.7 mph 28.8 mph 0.00 in   Overcast
4:43 PM 28.0 °F 15.3 °F 21.0 °F 75% 29.99 in 4.0 mi NNW 18.4 mph 27.6 mph 0.00 in   Overcast
4:52 PM 28.0 °F 14.9 °F 21.0 °F 75% 30.08 in 7.0 mi NNW 19.6 mph 31.1 mph 0.00 in   Overcast
5:52 PM 27.0 °F 15.6 °F 19.0 °F 72% 30.11 in 10.0 mi NNW 13.8 mph 24.2 mph 0.00 in   Overcast
6:52 PM 26.1 °F 17.6 °F 17.1 °F 69% 30.15 in 10.0 mi NNW 8.1 mph - N/A   Clear
7:52 PM 21.9 °F 14.5 °F 15.1 °F 75% 30.19 in 10.0 mi NW 5.8 mph - N/A   Clear
8:52 PM 17.1 °F 10.0 °F 14.0 °F 88% 30.22 in 10.0 mi NW 4.6 mph - N/A   Clear
9:52 PM 15.1 °F - 12.0 °F 88% 30.22 in 10.0 mi Calm Calm - N/A   Clear
10:52 PM 10.9 °F - 9.0 °F 92% 30.21 in 10.0 mi Calm Calm - N/A   Clear
11:52 PM 8.1 °F - 3.9 °F 83% 30.22 in 10.0 mi Calm Calm - N/A   Clear